TimeCST,TemperatureF,Dew PointF,Humidity,Sea Level PressureIn,VisibilityMPH,Wind Direction,Wind SpeedMPH,Gust SpeedMPH,PrecipitationIn,Events,Conditions,WindDirDegrees,DateUTC
12:52 AM,30.9,19.9,64,30.04,10.0,SSW,8.1,-,N/A,,Mostly Cloudy,210,2012-01-29 06:52:00
1:52 AM,30.9,19.9,64,30.03,10.0,WSW,10.4,-,N/A,,Mostly Cloudy,250,2012-01-29 07:52:00
2:52 AM,30.0,21.0,69,30.02,10.0,SW,8.1,-,N/A,,Overcast,230,2012-01-29 08:52:00
3:52 AM,33.1,19.0,56,30.01,10.0,West,13.8,20.7,N/A,,Overcast,260,2012-01-29 09:52:00
4:52 AM,34.0,19.9,56,30.02,10.0,West,16.1,24.2,N/A,,Mostly Cloudy,280,2012-01-29 10:52:00
5:52 AM,32.0,23.0,69,30.04,10.0,WNW,18.4,26.5,0.00,,Overcast,290,2012-01-29 11:52:00
6:52 AM,30.0,19.9,66,30.07,10.0,WNW,18.4,25.3,N/A,,Clear,290,2012-01-29 12:52:00
7:52 AM,28.0,19.0,69,30.12,10.0,WNW,16.1,24.2,N/A,,Clear,290,2012-01-29 13:52:00
8:52 AM,28.9,19.0,67,30.14,10.0,WNW,17.3,26.5,N/A,,Clear,300,2012-01-29 14:52:00
9:52 AM,28.0,19.0,69,30.19,10.0,NW,20.7,29.9,N/A,,Mostly Cloudy,310,2012-01-29 15:52:00
10:36 AM,28.4,17.6,64,30.19,10.0,NW,23.0,27.6,N/A,,Partly Cloudy,320,2012-01-29 16:36:00
10:52 AM,30.0,19.0,64,30.22,10.0,WNW,18.4,24.2,N/A,,Scattered Clouds,300,2012-01-29 16:52:00
11:03 AM,28.4,17.6,64,30.20,10.0,NW,17.3,27.6,N/A,,Mostly Cloudy,320,2012-01-29 17:03:00
11:11 AM,28.4,17.6,64,30.20,10.0,WNW,20.7,-,N/A,,Scattered Clouds,300,2012-01-29 17:11:00
11:52 AM,30.0,18.0,61,30.22,10.0,NNW,12.7,23.0,N/A,,Partly Cloudy,330,2012-01-29 17:52:00
12:52 PM,30.9,18.0,59,30.22,10.0,NW,13.8,-,N/A,,Partly Cloudy,320,2012-01-29 18:52:00
1:52 PM,30.9,17.1,57,30.22,10.0,NNW,10.4,-,N/A,,Clear,330,2012-01-29 19:52:00
2:52 PM,32.0,18.0,56,30.22,10.0,WNW,11.5,-,N/A,,Scattered Clouds,290,2012-01-29 20:52:00
3:52 PM,30.9,18.0,59,30.24,10.0,West,9.2,-,N/A,,Clear,280,2012-01-29 21:52:00
4:52 PM,28.9,18.0,64,30.25,10.0,West,8.1,-,N/A,,Clear,280,2012-01-29 22:52:00
5:52 PM,28.0,17.1,63,30.25,10.0,Calm,Calm,-,N/A,,Clear,0,2012-01-29 23:52:00
6:52 PM,23.0,19.0,85,30.25,10.0,Calm,Calm,-,N/A,,Clear,0,2012-01-30 00:52:00
7:52 PM,21.0,18.0,88,30.24,10.0,Calm,Calm,-,N/A,,Clear,0,2012-01-30 01:52:00
8:52 PM,21.9,17.1,82,30.24,10.0,East,4.6,-,N/A,,Scattered Clouds,90,2012-01-30 02:52:00
9:52 PM,24.1,19.0,81,30.22,10.0,ENE,3.5,-,N/A,,Overcast,70,2012-01-30 03:52:00
10:52 PM,26.6,19.4,74,30.18,10.0,ESE,5.8,-,N/A,,Overcast,110,2012-01-30 04:52:00
11:52 PM,28.0,21.0,75,30.17,10.0,East,8.1,-,N/A,,Overcast,90,2012-01-30 05:52:00